Regional Weather Roundup
Issued by NWS

Home | Current Version | Previous Version | Graphics & Text | Print | Product List | Glossary On
Versions: 1 2 3 4 5 6 7 8 9 10 11 12 13 14 15 16 17 18 19 20 21 22 23 24 25 26 27 28 29 30 31 32 33 34 35 36 37 38 39 40 41 42 43 44 45 46 47 48 49 50
000
ASUS43 KDMX 212307
RWRIA

WEATHER ROUNDUP FOR IOWA
NATIONAL WEATHER SERVICE DES MOINES IA
600 PM CDT THU MAY 21 2015

NOTE: "FAIR" INDICATES FEW OR NO CLOUDS BELOW 12,000 FEET WITH NO
SIGNIFICANT WEATHER AND/OR OBSTRUCTIONS TO VISIBILITY.

* - THESE STATIONS ARE NOT NWS STATIONS...THUS NOT UNDER NWS
QUALITY CONTROL.  THEY ALSO DO NOT REPORT WEATHER SUCH
AS PRECIPITATION OR FOG.

IAZ001>003-012>014-020>022-031>034-043>046-220000-
   NORTHWEST IOWA

CITY           SKY/WX    TMP DP  RH WIND       PRES   REMARKS
CARROLL *      MOSUNNY   73  36  25 NW16G23   30.10F
CHEROKEE *     MOSUNNY   72  37  28 NW10      30.10F
DENISON *      SUNNY     72  37  28 NW9G16    30.11F
LE MARS *      MOSUNNY   73  37  27 NW9G21    30.12F
ORANGE CITY *  MOSUNNY   70  37  30 NW12G22   30.11S
SHELDON *      MOSUNNY   72  32  23 NW20G26   30.09S
SIOUX CITY     SUNNY     75  34  22 NW8G17    30.13F
SPENCER        CLOUDY    72  38  29 N17       30.08F
STORM LAKE *   SUNNY     73  34  23 NW18      30.11S
$$

IAZ055>058-069>071-079>083-090>094-220000-
   SOUTHWEST IOWA

CITY           SKY/WX    TMP DP  RH WIND       PRES   REMARKS
ATLANTIC *     MOSUNNY   72  37  28 NW9G18    30.14S
AUDUBON *      MOSUNNY   72  34  25 NW8       30.14S
CLARINDA *     SUNNY     72  41  33 CALM      30.18F
COUNCIL BLFS * SUNNY     70  43  37 W9G17     30.16F
CRESTON *      SUNNY     70  43  37 W15       30.15S
HARLAN  *      SUNNY     73  36  25 NW16G22   30.17F
LAMONI         SUNNY     72  45  37 W10       30.14F
RED OAK *      SUNNY     72  39  30 W6G13     30.16F
SHENANDOAH *   SUNNY     72  39  30 NW5       30.17F
$$

IAZ047>049-059>061-072>074-084-220000-
   CENTRAL IOWA

CITY           SKY/WX    TMP DP  RH WIND       PRES   REMARKS
AMES           PTSUNNY   76  35  22 W18G25    30.06F
ANKENY *       MOSUNNY   73  41  31 W12G25    30.07F
CHARITON *     MOSUNNY   72  41  33 W15       30.11F
DES MOINES     MOSUNNY   77  36  22 W18       30.08F
GRINNELL*      PTSUNNY   73  39  29 W17G26    30.06F
KNOXVILLE *    SUNNY     73  36  25 NW16G23   30.07F
MARSHALLTOWN   MOSUNNY   73  38  27 NW17G29   30.04S
PELLA *        SUNNY     73  46  38 NW13G21   30.08F
PERRY *          N/A     75  36  23 NW14G21   30.09F
$$

IAZ004>006-015-016-023>025-035-036-220000-
   NORTH CENTRAL IOWA

CITY           SKY/WX    TMP DP  RH WIND       PRES   REMARKS
ALGONA *       SUNNY     73  30  20 NW20      30.07S
CLARION *      SUNNY     73  30  20 N21G30    30.05S
ESTHERVILLE    SUNNY     72  26  18 NW22G32   30.06F
FORT DODGE *   PTSUNNY   73  39  29 NW12G18   30.07F
MASON CITY     SUNNY     72  30  21 NW18G30   30.05S
FOREST CITY *  SUNNY     68  32  26 NW18      30.04F
IOWA FALLS *     N/A     75  32  20 NW20G30   30.05F
$$

IAZ007>011-017>019-026>030-037>042-050>054-066-220000-
   NORTHEAST IOWA

CITY           SKY/WX    TMP DP  RH WIND       PRES   REMARKS
CEDAR RAPIDS   MOSUNNY   71  43  36 NW12      30.02F
CHARLES CITY * SUNNY     73  21  14 NW21G29   30.02S
CLINTON *      SUNNY     72  39  30 NW12      30.06F
DECORAH *      SUNNY     70  28  21 NW13G24   29.99S
DUBUQUE        SUNNY     68  42  38 W10       30.00F
MONTICELLO *   MOSUNNY   73  43  33 W12G21    30.00F
OELWEIN *      SUNNY     73  32  21 NW22G29   30.01S
WATERLOO       SUNNY     74  30  19 NW17G32   30.00F
$$

IAZ064-065-067-068-078-220000-
   EAST CENTRAL IOWA

CITY           SKY/WX    TMP DP  RH WIND       PRES   REMARKS
DAVENPORT      SUNNY     72  36  26 W13G23    30.05F
IOWA CITY      PTSUNNY   72  43  35 W10       30.04F
MT. PLEASANT * SUNNY     72  37  28 SW8       30.08F
MUSCATINE *    SUNNY     73  39  29 W14       30.05F
QUAD CITIES    SUNNY     71  39  31 W12       30.04F
$$

IAZ062-063-075>077-085>089-095>099-220000-
   SOUTHEAST IOWA

CITY           SKY/WX    TMP DP  RH WIND       PRES   REMARKS
BURLINGTON     SUNNY     70  43  37 W12       30.09F
FAIRFIELD *    MOSUNNY   72  43  35 W10       30.08F
FORT MADISON * SUNNY     70  45  40 SW8       30.10F
KEOKUK *       SUNNY     70  46  43 SW9       30.10F
OSKALOOSA *      N/A     73  37  27 W14       30.07F
CENTERVILLE *  SUNNY     72  72 100 W9        30.13F
OTTUMWA        SUNNY     72  43  35 W13       30.07S
WASHINGTON *   PTSUNNY   72  43  35 SW13      30.07F
$$

ABBREVIATIONS USED IN REMARKS
   TC - TEMPERATURES IN CELSIUS
  WCI - WIND CHILL INDEX
   HX - HEAT INDEX
  VSB - VISIBILITY
$$




USA.gov is the U.S. government's official web portal to all federal, state and local government web resources and services.